Miscellaneous Local Product
Issued by NWS Hastings, NE

Home | Current Version | Previous Version | Text Only | Print | Product List | Glossary Off
Versions: 1 2 3 4 5 6 7 8 9 10 11 12 13 14 15 16 17 18 19 20 21 22 23 24 25 26 27 28 29 30 31 32 33 34 35 36 37 38 39 40 41 42 43 44 45 46 47 48 49 50

000
AXUS43 KGID 211402
MISGRI

GID CWA HOURLY WEATHER ROUNDUP
NATIONAL WEATHER SERVICE HASTINGS NE
900 AM CDT THU AUG 21 2014

NOTE: "FAIR" INDICATES FEW OR NO CLOUDS BELOW 12,000 FEET WITH NO
SIGNIFICANT WEATHER AND/OR OBSTRUCTIONS TO VISIBILITY.

...SOUTH CENTRAL NEBRASKA...

CITY           SKY/WX    TMP DP  RH WIND       PRES   REMARKS
GRAND ISLAND   MOSUNNY   75  68  78 S14       29.83R
HASTINGS       PTSUNNY   72  65  78 S12       29.85R
KEARNEY        MOSUNNY   73  68  83 SW5       29.85R
ORD            MOSUNNY   73  65  75 S6        29.82F
YORK           CLOUDY    73 N/A N/A S16G22    29.85R
AURORA         PTSUNNY   75  69  84 S14G23    29.84R
LEXINGTON      MOSUNNY   73  66  80 E5        29.85R
HOLDREGE       MOSUNNY   71  66  84 CALM      29.85S
HEBRON         CLOUDY    73  67  82 CALM      29.88R

...NEBRASKA PANHANDLE...

CITY           SKY/WX    TMP DP  RH WIND       PRES   REMARKS
CHADRON        SUNNY     65  55  70 SW5       29.97R
ALLIANCE       SUNNY     68  56  65 N12       29.98R
SCOTTSBLUFF    SUNNY     64  52  64 NW10      30.00R
SIDNEY         SUNNY     68  50  52 NW13      30.02R

...WESTERN AND NORTH CENTRAL NEBRASKA...

CITY           SKY/WX    TMP DP  RH WIND       PRES   REMARKS
VALENTINE      PTSUNNY   67  62  84 NW7       29.90S
AINSWORTH      PTSUNNY   68  62  79 NW8       29.90R
ONEILL         SUNNY     76  66  73 NW9       29.83S
BROKEN BOW     MOSUNNY   76  64  66 NW5       29.84F
IMPERIAL       MOSUNNY   73  60  63 NW10      29.92R
NORTH PLATTE   PTSUNNY   74  62  66 W3        29.88R
MCCOOK         MOSUNNY   77  60  55 N7        29.87R

...EASTERN NEBRASKA...

CITY           SKY/WX    TMP DP  RH WIND       PRES   REMARKS
NORFOLK        SUNNY     77  65  66 VRB7      29.81R
SO SIOUX CITY  PTSUNNY   76  67  73 SE6       29.78S
TEKAMAH        CLOUDY    77  70  79 S3        29.81R
COLUMBUS       MOSUNNY   75  66  73 SW13      29.82R
ALBION         SUNNY     74  65  74 SW6       29.83R
OMAHA EPPLEY   CLOUDY    76  69  79 NE5       29.81R
OFFUTT AFB     PTSUNNY   74  73  95 S6        29.79R
MILLARD        CLOUDY    76  68  78 CALM      29.79S
LINCOLN        LGT RAIN  73  69  87 S17       29.82F
NEBRASKA CITY  CLOUDY    74  68  81 SW8       29.85F
BEATRICE       CLOUDY    76  69  79 S3        29.88R
FALLS CITY     CLOUDY    80  70  71 CALM      29.88R

...NORTHERN KANSAS...

CITY           SKY/WX    TMP DP  RH WIND       PRES   REMARKS
GOODLAND       MOSUNNY   70  60  70 NW10      29.97R
HILL CITY      PTSUNNY   77  65  66 NW3       29.85R
NORTON         MOSUNNY   73  64  73 NE6       29.84S
PHILLIPSBURG   RAIN      79  66  65 SE8       29.83S
SMITH CENTER   MOSUNNY   72  66  83 E9        29.85S
BELOIT         MOSUNNY   81  64  57 CALM      29.85R
HAYS           SUNNY     82  64  54 SW17G25   29.85S
RUSSELL        SUNNY     82  64  54 S15       29.84R
CONCORDIA      MOSUNNY   79  68  69 VRB6      29.87R
SALINA         SUNNY     82  67  60 S17G26    29.85S
TOPEKA         MOSUNNY   82  71  69 S15G25    29.89R



USA.gov is the U.S. government's official web portal to all federal, state and local government web resources and services.